Home > Weather > Rochester > Past weeks

Flag for U.S.A. Weather for the Past 2 Weeks in Rochester, New York, U.S.A.

Now
27 °F

Passing clouds.


Feels Like: 27 °F
Forecast: 31 / 42 °F
Wind: No wind

Location: Greater Rochester International Airport

Current Time: Feb 7, 2016 at 9:01:36 AM

Latest Report: Feb 7, 2016 at 7:54 AM


Visibility: 9 mi

Pressure: 30.13 "Hg

Humidity: 81%

Dew point: 22 °F

Location of RochesterLocation

Historic Weather in Rochester — Graph

°F

Rochester Temperature Yesterday

Maximum temperature yesterday: 38 °F (at 3:54 PM)
Minimum temperature yesterday: 28 °F (at 12:54 AM)
Average temperature yesterday: 32 °F

High & Low Weather Summary for the Past Weeks

 TemperatureHumidityPressure
High60 °F (Feb 1, 1:54 AM)96% (Jan 29, 1:54 AM)30.39 "Hg (Jan 29, 1:54 AM)
Low8 °F (Jan 24, 1:54 AM)39% (Jan 25, 9:54 PM)29.49 "Hg (Feb 1, 1:54 AM)
Average35 °F69%29.97 "Hg
* Reported Jan 23 7:54 AM — Feb 7 7:54 AM, Rochester, Weather by CustomWeather, © 2016

Note: Actual official high and low records may vary slightly from our data, if they occured in-between our weather recording intervals... More about our weather records

Advertising

Rochester Weather History for the Previous 24 Hours

 ConditionsComfort  
Time TempWeatherWind HumidityBarometerVisibility
7:54 AM
Sun, Feb 7
27 °FPassing clouds.No wind81%30.13 "Hg9 mi
6:54 AM26 °FPassing clouds.3 mph81%30.14 "Hg10 mi
5:54 AM27 °FPassing clouds.3 mph81%30.16 "Hg10 mi
4:54 AM27 °FPassing clouds.6 mph85%30.16 "Hg10 mi
3:54 AM29 °FPassing clouds.6 mph79%30.15 "Hg10 mi
2:54 AM29 °FPassing clouds.6 mph79%30.16 "Hg10 mi
1:54 AM31 °FPassing clouds.8 mph76%30.14 "Hg10 mi
12:54 AM31 °FOvercast.8 mph79%30.16 "Hg10 mi
11:54 PM
Sat, Feb 6
31 °FOvercast.7 mph79%30.17 "Hg10 mi
10:54 PM31 °FOvercast.6 mph79%30.18 "Hg10 mi
9:54 PM32 °FOvercast.7 mph75%30.19 "Hg10 mi
8:54 PM30 °FPassing clouds.8 mph75%30.20 "Hg10 mi
7:54 PM31 °FPassing clouds.7 mph73%30.20 "Hg10 mi
6:54 PM32 °FPassing clouds.8 mph66%30.21 "Hg10 mi
5:54 PM34 °FPassing clouds.10 mph61%30.20 "Hg10 mi
4:54 PM37 °FPassing clouds.14 mph50%30.20 "Hg10 mi
3:54 PM38 °FPassing clouds.16 mph51%30.19 "Hg10 mi
2:54 PM37 °FPartly sunny.20 mph62%30.20 "Hg10 mi
1:54 PM35 °FOvercast.14 mph70%30.21 "Hg10 mi
12:54 PM33 °FLight snow. Mostly cloudy.13 mph78%30.23 "Hg4 mi
11:54 AM34 °FLight snow. Partly sunny.14 mph76%30.24 "Hg7 mi
10:54 AM35 °FLight snow. Broken clouds.15 mph70%30.25 "Hg9 mi
9:54 AM35 °FPartly sunny.17 mph64%30.25 "Hg10 mi
Weather by CustomWeather, © 2016

See weather overviewHow to use our weather pages